VA3XLC Weather Reports


time (UTC)temp
C
wind
direction
speed
KPH
gust
KPH
rain 1hr
cm
rain 24hr
cm
rain mn
cm
humidity
%
barometer
mb
20260901183725 28 344 3.2 6.4 0.00 0.00 0.00 80 981.8
20260901183225 28 321 8.0 12.9 0.00 0.00 0.00 80 981.8
20260901182724 28 274 8.0 9.7 0.00 0.00 0.00 81 981.8
20260901182224 28 303 6.4 11.3 0.00 0.00 0.00 81 981.8
20260901181723 28 314 8.0 12.9 0.00 0.00 0.00 80 981.9
20260901180702 28 302 8.0 12.9 0.00 0.00 0.00 81 981.8
20260901180202 28 328 6.4 11.3 0.00 0.00 0.00 80 981.8
20260901175701 28 276 9.7 12.9 0.00 0.00 0.00 81 981.7
20260901175201 28 318 4.8 12.9 0.00 0.00 0.00 80 981.7
20260901174700 28 276 3.2 4.8 0.00 0.00 0.00 80 981.7
20260901174200 28 267 6.4 9.7 0.00 0.00 0.00 81 981.8
20260901173700 28 299 8.0 11.3 0.00 0.00 0.00 79 981.8
20260901173200 28 295 8.0 11.3 0.00 0.00 0.00 80 981.7
20260901172700 28 306 8.0 11.3 0.00 0.00 0.00 80 981.7
20260901172159 28 283 8.0 11.3 0.00 0.00 0.00 81 981.8
20260901170617 28 305 9.7 12.9 0.00 0.00 0.00 80 981.9
20260901170117 28 280 11.3 16.1 0.00 0.00 0.00 80 981.9
20260901165616 28 275 11.3 14.5 0.00 0.00 0.00 79 981.8
20260901165116 27 325 4.8 11.3 0.00 0.00 0.00 80 981.9
20260901164616 27 274 11.3 19.3 0.00 0.00 0.00 80 982.0
20260901164116 27 309 8.0 11.3 0.00 0.00 0.00 80 982.0
20260901163616 27 280 9.7 11.3 0.00 0.00 0.00 80 982.0
20260901163115 28 269 11.3 12.9 0.00 0.00 0.00 79 982.0
20260901162053 28 323 9.7 14.5 0.00 0.00 0.00 78 981.9
20260901161553 27 310 3.2 9.7 0.00 0.00 0.00 80 981.9
20260901161053 27 303 6.4 9.7 0.00 0.00 0.00 80 982.0
20260901160555 27 322 3.2 8.0 0.00 0.00 0.00 80 982.0
20260901160052 27 271 8.0 12.9 0.00 0.00 0.00 81 982.0
20260901155552 27 280 8.0 12.9 0.00 0.00 0.00 81 982.0
20260901155052 27 308 6.4 14.5 0.00 0.00 0.00 80 982.1
20260901154551 27 284 8.0 12.9 0.00 0.00 0.00 81 982.2
20260901154050 26 274 6.4 8.0 0.00 0.00 0.00 82 982.2
20260901153549 26 293 8.0 11.3 0.00 0.00 0.00 83 982.2
20260901153049 26 269 9.7 12.9 0.00 0.00 0.00 82 982.2
20260901152549 26 281 3.2 6.4 0.00 0.00 0.00 82 982.2
20260901151527 26 315 9.7 14.5 0.00 0.00 0.00 83 982.2
20260901151027 26 319 9.7 14.5 0.00 0.00 0.00 83 982.3
20260901150527 26 306 4.8 6.4 0.00 0.00 0.00 85 982.3
20260901150026 26 303 6.4 9.7 0.00 0.00 0.00 85 982.3
20260901143922 25 299 6.4 8.0 0.00 0.00 0.00 86 982.1
20260901142339 25 308 6.4 8.0 0.00 0.00 0.00 87 982.2
20260901141839 25 282 3.2 4.8 0.00 0.00 0.00 89 982.3
20260901140818 25 319 4.8 8.0 0.00 0.00 0.00 89 982.3
20260901140317 24 325 6.4 11.3 0.00 0.00 0.00 89 982.2
20260901135817 24 324 3.2 6.4 0.00 0.00 0.00 90 982.2
20260901135317 24 275 4.8 9.7 0.00 0.00 0.00 91 982.1
20260901134817 24 328 3.2 4.8 0.00 0.00 0.00 91 982.3
20260901134316 24 307 4.8 8.0 0.00 0.00 0.00 91 982.3
20260901133816 23 343 1.6 4.8 0.00 0.00 0.00 92 982.3
20260901133316 23 307 6.4 9.7 0.00 0.00 0.00 92 982.3
20260901132816 23 269 3.2 4.8 0.00 0.00 0.00 93 982.4
20260901132316 23 333 3.2 6.4 0.00 0.00 0.00 93 982.5
20260901131815 23 308 4.8 6.4 0.00 0.00 0.00 93 982.6
20260901131315 23 300 3.2 8.0 0.00 0.00 0.00 93 982.6
20260901130815 23 319 6.4 8.0 0.00 0.00 0.00 93 982.7
20260901130314 23 345 4.8 8.0 0.00 0.00 0.00 93 982.7
20260901125814 23 284 4.8 6.4 0.00 0.00 0.00 93 982.7
20260901125314 23 337 4.8 8.0 0.00 0.00 0.00 92 982.6
20260901124814 23 351 4.8 6.4 0.00 0.00 0.00 93 982.6
20260901124314 23 346 3.2 6.4 0.00 0.00 0.00 93 982.6
20260901123814 23 243 4.8 6.4 0.00 0.00 0.00 93 982.5
20260901123313 23 250 3.2 4.8 0.00 0.00 0.00 94 982.6
20260901122813 23 330 3.2 4.8 0.00 0.00 0.00 94 982.6
20260901122313 22 244 3.2 3.2 0.00 0.00 0.00 94 982.6
20260901121812 22 258 3.2 4.8 0.00 0.00 0.00 94 982.5
20260901121311 22 284 3.2 4.8 0.00 0.00 0.00 94 982.5
20260901120811 22 254 1.6 3.2 0.00 0.00 0.00 95 982.4
20260901120311 22 279 1.6 3.2 0.00 0.00 0.00 95 982.4
20260901115811 22 261 4.8 6.4 0.00 0.00 0.00 95 982.4
20260901115310 22 277 3.2 4.8 0.00 0.00 0.00 95 982.4
20260901114810 21 268 3.2 4.8 0.00 0.00 0.00 95 982.2
20260901114310 21 324 3.2 4.8 0.00 0.00 0.00 95 982.2
20260901113810 21 261 1.6 4.8 0.00 0.00 0.00 95 982.2
20260901113309 21 243 1.6 3.2 0.00 0.00 0.00 95 982.2
20260901112809 21 236 1.6 4.8 0.00 0.00 0.00 95 982.2
20260901112309 21 276 1.6 4.8 0.00 0.00 0.00 95 982.1
20260901111247 21 310 1.6 1.6 0.00 0.00 0.00 95 982.0
20260901110746 21 0 0.0 0.0 0.00 0.00 0.00 95 982.0
20260901110246 21 252 1.6 3.2 0.00 0.00 0.00 95 981.9
20260901105746 21 305 3.2 6.4 0.00 0.00 0.00 95 981.9
20260901105246 21 259 1.6 3.2 0.00 0.00 0.00 95 981.8
20260901104746 21 254 1.6 4.8 0.00 0.00 0.00 95 981.8
20260901104245 21 290 1.6 4.8 0.00 0.00 0.00 95 981.8
20260901103745 21 251 1.6 3.2 0.00 0.00 0.00 95 981.8
20260901103245 21 271 3.2 4.8 0.00 0.00 0.00 95 981.7
20260901102745 21 293 1.6 3.2 0.00 0.00 0.00 95 981.7
20260901101723 21 275 3.2 6.4 0.00 0.00 0.00 95 981.6
20260901101223 21 273 3.2 6.4 0.00 0.00 0.00 95 981.7
20260901100723 21 308 3.2 6.4 0.00 0.00 0.00 95 981.6
20260901100222 21 266 3.2 4.8 0.00 0.00 0.00 95 981.7
20260901095722 21 255 1.6 3.2 0.00 0.00 0.00 95 981.6
20260901095222 21 258 1.6 3.2 0.00 0.00 0.00 95 981.6
20260901094722 21 280 3.2 4.8 0.00 0.00 0.00 95 981.6
20260901094222 21 294 1.6 3.2 0.00 0.00 0.00 95 981.6
20260901093721 21 320 3.2 6.4 0.00 0.00 0.00 95 981.6
20260901093221 21 305 1.6 4.8 0.00 0.00 0.00 95 981.6
20260901092721 21 266 3.2 6.4 0.00 0.00 0.00 95 981.5
20260901092221 21 281 3.2 4.8 0.00 0.00 0.00 95 981.4
20260901091720 21 258 3.2 4.8 0.00 0.00 0.00 95 981.4
20260901091220 22 279 3.2 6.4 0.00 0.00 0.00 95 981.5
20260901090720 22 270 3.2 4.8 0.00 0.00 0.00 94 981.4
20260901090220 22 256 4.8 9.7 0.00 0.00 0.00 94 981.4
20260901085720 22 277 4.8 8.0 0.00 0.00 0.00 94 981.4
20260901085219 22 258 4.8 6.4 0.00 0.00 0.00 94 981.4
20260901084719 22 264 4.8 6.4 0.00 0.00 0.00 94 981.3
20260901083657 22 280 3.2 4.8 0.00 0.00 0.00 94 981.1
20260901083157 22 261 4.8 8.0 0.00 0.00 0.00 94 981.2
20260901082657 22 259 3.2 6.4 0.00 0.00 0.00 93 981.1
20260901082157 22 268 3.2 6.4 0.00 0.00 0.00 93 981.1
20260901081657 22 254 4.8 9.7 0.00 0.00 0.00 93 981.2
20260901081156 22 266 4.8 6.4 0.00 0.00 0.00 93 981.2
20260901080656 22 255 4.8 6.4 0.00 0.00 0.00 93 981.3
20260901080156 22 259 3.2 6.4 0.00 0.00 0.00 93 981.3
20260901075655 22 255 4.8 8.0 0.00 0.00 0.00 93 981.2
20260901075155 22 262 4.8 6.4 0.00 0.00 0.00 93 981.2
20260901074134 22 260 4.8 9.7 0.00 0.00 0.00 93 981.2
20260901073633 22 282 6.4 9.7 0.00 0.00 0.00 93 981.1
20260901072611 22 280 3.2 4.8 0.00 0.00 0.00 93 981.1
20260901071550 22 261 4.8 8.0 0.00 0.00 0.00 92 981.2
20260901071050 22 264 6.4 11.3 0.00 0.00 0.00 92 981.3
20260901065507 22 239 3.2 6.4 0.00 0.00 0.00 92 981.6
20260901065007 22 260 6.4 9.7 0.00 0.00 0.00 91 981.6
20260901063945 22 230 1.6 6.4 0.00 0.00 0.00 91 981.6
20260901063445 22 252 4.8 6.4 0.00 0.00 0.00 92 981.5
20260901062945 22 233 1.6 4.8 0.00 0.00 0.00 91 981.6
20260901062445 22 251 6.4 8.0 0.00 0.00 0.00 90 981.7
20260901061945 22 251 4.8 9.7 0.00 0.00 0.00 91 981.7
20260901061445 22 265 3.2 6.4 0.00 0.00 0.00 91 981.9
20260901060422 22 281 1.6 4.8 0.00 0.00 0.00 91 982.1
20260901055922 22 272 4.8 8.0 0.00 0.00 0.00 91 982.1
20260901055422 22 262 6.4 8.0 0.00 0.00 0.00 92 982.0
20260901054922 22 247 3.2 4.8 0.00 0.00 0.00 93 982.1
20260901054422 22 250 1.6 4.8 0.00 0.00 0.00 93 982.2
20260901053921 21 264 6.4 9.7 0.00 0.00 0.00 94 982.1
20260901053420 21 265 3.2 4.8 0.00 0.00 0.00 94 982.1
20260901052920 21 152 1.6 3.2 0.00 0.00 0.00 94 982.1
20260901052420 21 0 0.0 0.0 0.00 0.00 0.00 95 982.2
20260901051358 21 188 1.6 3.2 0.00 0.00 0.00 95 982.2
20260901050856 21 262 1.6 3.2 0.00 0.00 0.00 95 982.3
20260901045313 21 127 1.6 3.2 0.00 0.00 0.00 95 982.4
20260901044813 21 249 1.6 3.2 0.00 0.00 0.00 95 982.3
20260901044313 21 0 0.0 0.0 0.00 0.00 0.00 95 982.4
20260901043812 21 279 1.6 3.2 0.00 0.00 0.00 94 982.4
20260901043312 21 248 3.2 6.4 0.00 0.00 0.00 94 982.4
20260901042812 21 164 1.6 3.2 0.00 0.00 0.00 94 982.5
20260901042312 21 148 3.2 4.8 0.00 0.00 0.00 94 982.6
20260901041811 21 247 1.6 3.2 0.00 0.00 0.00 94 982.6
20260901041311 21 149 1.6 3.2 0.00 0.00 0.00 94 982.7
20260901040249 21 244 3.2 4.8 0.00 0.00 0.00 94 982.8
20260901035749 21 0 0.0 0.0 0.00 0.00 0.00 95 982.9
20260901035249 21 276 1.6 3.2 0.00 0.00 0.00 95 982.9
20260901034748 21 140 1.6 1.6 0.00 0.00 0.00 95 983.0
20260901034247 21 193 1.6 1.6 0.00 0.00 0.00 95 983.0
20260901033747 21 0 0.0 0.0 0.00 0.00 0.00 95 983.0
20260901033247 21 224 1.6 3.2 0.00 0.00 0.00 95 983.0
20260901032747 21 0 0.0 0.0 0.00 0.00 0.00 95 982.9
20260901032246 21 164 1.6 3.2 0.00 0.00 0.00 95 982.9
20260901031225 21 235 1.6 4.8 0.00 0.00 0.00 95 982.9
20260901030725 21 228 3.2 4.8 0.00 0.00 0.00 95 982.9
20260901030225 21 45 1.6 3.2 0.00 0.00 0.00 95 982.9
20260901025724 21 348 1.6 3.2 0.00 0.00 0.00 95 982.9
20260901024141 21 85 1.6 4.8 0.00 0.00 0.00 95 982.9
20260901023640 21 64 0.0 1.6 0.00 0.00 0.00 95 983.0
20260901022619 21 0 0.0 0.0 0.00 0.00 0.00 95 983.0
20260901022118 21 146 1.6 3.2 0.00 0.00 0.00 95 983.0
20260901021617 21 132 1.6 3.2 0.00 0.00 0.00 95 983.0
20260901021117 21 0 0.0 0.0 0.00 0.00 0.00 95 983.0
20260901020617 21 151 4.8 4.8 0.00 0.00 0.00 95 983.0
20260901020116 21 141 3.2 4.8 0.00 0.00 0.00 95 983.0
20260901015055 21 149 3.2 6.4 0.00 0.00 0.00 95 983.1
20260901014555 21 132 1.6 1.6 0.00 0.00 0.00 95 983.1
20260901014054 21 154 3.2 4.8 0.00 0.00 0.00 95 983.1
20260901013554 21 170 1.6 3.2 0.00 0.00 0.00 95 983.2
20260901013053 21 145 3.2 3.2 0.00 0.00 0.00 95 983.1
20260901012552 21 148 1.6 3.2 0.00 0.00 0.00 95 983.1
20260901011531 21 166 3.2 6.4 0.00 0.00 0.00 95 983.1
20260901011031 21 153 3.2 4.8 0.00 0.00 0.00 95 983.2
20260901010531 21 147 3.2 4.8 0.00 0.00 0.00 95 983.2
20260901010031 21 279 1.6 4.8 0.00 0.00 0.00 95 983.0
20260901005530 21 145 3.2 6.4 0.00 0.00 0.00 95 983.2
20260901005030 21 173 4.8 9.7 0.00 0.00 0.00 95 983.2
20260901004530 21 163 4.8 6.4 0.00 0.00 0.00 95 983.2
20260901002946 22 157 3.2 4.8 0.00 0.00 0.00 95 983.3
20260901002446 22 237 3.2 6.4 0.00 0.00 0.00 95 983.3
20260901001946 22 275 1.6 4.8 0.00 0.00 0.00 95 983.4
20260901001446 22 155 1.6 4.8 0.00 0.00 0.00 95 983.4
20260901000945 22 130 1.6 3.2 0.00 0.00 0.00 95 983.4
20260901000444 22 255 1.6 4.8 0.00 0.00 0.00 95 983.4
20260831235944 22 218 1.6 3.2 0.00 0.00 0.00 95 983.4
20260831235444 22 166 1.6 4.8 0.00 0.00 0.00 95 983.5
20260831234944 22 199 1.6 1.6 0.00 0.00 0.00 95 983.5
20260831233922 22 211 3.2 4.8 0.00 0.00 0.00 95 983.6
20260831233422 22 189 1.6 3.2 0.00 0.00 0.00 95 983.6
20260831232922 22 124 1.6 3.2 0.00 0.00 0.00 95 983.5
20260831232422 22 163 1.6 3.2 0.00 0.00 0.00 95 983.6
20260831231921 23 213 1.6 3.2 0.00 0.00 0.00 95 983.6
20260831231421 23 197 1.6 4.8 0.00 0.00 0.00 95 983.6
20260831230921 23 172 3.2 4.8 0.00 0.00 0.00 94 983.5
20260831230420 23 173 1.6 4.8 0.00 0.00 0.00 95 983.6
20260831225920 23 227 1.6 3.2 0.00 0.00 0.00 94 983.6
20260831224859 23 178 3.2 4.8 0.00 0.00 0.00 94 983.5
20260831224359 23 207 1.6 3.2 0.00 0.00 0.00 94 983.5
20260831223337 23 172 1.6 3.2 0.00 0.00 0.00 94 983.6
20260831222836 23 194 3.2 4.8 0.00 0.00 0.00 94 983.8
20260831222336 23 201 1.6 3.2 0.00 0.00 0.00 93 983.8
20260831221836 23 0 0.0 0.0 0.00 0.00 0.00 93 983.9
20260831220814 23 233 3.2 6.4 0.00 0.00 0.00 93 983.8
20260831220314 23 0 0.0 0.0 0.00 0.00 0.00 93 983.4
20260831215814 23 171 3.2 4.8 0.00 0.00 0.00 92 983.4
20260831215314 23 167 3.2 4.8 0.00 0.00 0.00 93 983.3
20260831214813 23 184 3.2 6.4 0.00 0.00 0.00 93 983.2
20260831214313 23 154 3.2 6.4 0.00 0.00 0.00 92 983.5
20260831213812 24 260 3.2 6.4 0.00 0.00 0.00 91 983.6
20260831213312 24 268 3.2 6.4 0.00 0.00 0.00 90 983.6
20260831212250 23 119 3.2 4.8 0.00 0.00 0.00 93 983.5
20260831211750 23 182 4.8 6.4 0.00 0.00 0.00 94 983.5
20260831210729 23 155 3.2 11.3 0.00 0.00 0.00 96 983.8
20260831210229 22 165 1.6 3.2 0.00 0.00 0.00 96 983.9
20260831205728 22 0 0.0 0.0 0.00 0.00 0.00 95 983.9
20260831205228 22 164 3.2 4.8 0.00 0.00 0.00 95 983.7
20260831204728 22 154 3.2 3.2 0.00 0.00 0.00 95 984.0
20260831204228 22 151 0.0 1.6 0.00 0.00 0.00 95 984.1
20260831203205 22 0 0.0 0.0 0.00 0.00 0.00 95 984.1
20260831202704 22 77 1.6 1.6 0.00 0.00 0.00 95 984.1
20260831202204 22 112 1.6 3.2 0.00 0.00 0.00 95 984.0
20260831201704 22 139 1.6 1.6 0.00 0.00 0.00 95 984.1
20260831201203 22 197 0.0 1.6 0.00 0.00 0.00 95 984.0
20260831200702 22 236 1.6 3.2 0.00 0.00 0.00 95 984.0
20260831200202 22 232 3.2 4.8 0.00 0.00 0.00 95 984.1
20260831195701 22 227 3.2 8.0 0.00 0.00 0.00 95 984.4
20260831195201 22 258 3.2 4.8 0.00 0.00 0.00 95 984.5
20260831194701 22 262 6.4 8.0 0.00 0.00 0.00 95 984.3
20260831194201 22 256 4.8 6.4 0.00 0.00 0.00 95 984.2
20260831193700 22 236 3.2 4.8 0.00 0.00 0.00 95 984.1
20260831193200 22 277 3.2 3.2 0.00 0.00 0.00 95 984.2
20260831192700 22 235 1.6 3.2 0.00 0.00 0.00 95 984.0
20260831192159 22 164 1.6 1.6 0.00 0.00 0.00 95 984.2
20260831191659 22 198 1.6 3.2 0.00 0.00 0.00 95 984.4
20260831191158 22 213 3.2 6.4 0.00 0.00 0.00 95 984.6
20260831190658 22 204 1.6 1.6 0.00 0.00 0.00 95 984.8
20260831190157 22 281 3.2 6.4 0.00 0.00 0.00 95 985.0
20260831185657 22 234 4.8 6.4 0.00 0.00 0.00 94 985.0
20260831185157 22 307 3.2 6.4 0.00 0.00 0.00 94 985.0
20260831184656 22 337 3.2 6.4 0.00 0.00 0.00 95 984.9
20260831184156 22 43 1.6 3.2 0.00 0.00 0.00 95 984.9